DW2213 Weather Reports


Display with metric or nautical units.
time (UTC)temp
F
wind
direction
speed
MPH
gust
MPH
rain 1hr
in
rain 24hr
in
rain mn
in
humidity
%
barometer
mb
20260902214804 81 29 0.0 0.0 0.00 0.00 0.00 84 1016.6
20260902214304 81 29 0.0 0.0 0.00 0.00 0.00 84 1016.6
20260902213804 81 29 0.0 0.0 0.00 0.00 0.00 84 1016.6
20260902213303 81 29 0.0 0.0 0.00 0.00 0.00 84 1016.6
20260902212804 81 29 0.0 0.0 0.00 0.00 0.00 84 1016.6
20260902212306 81 30 0.0 0.0 0.00 0.00 0.00 84 1016.5
20260902211804 81 30 0.0 0.0 0.00 0.00 0.00 84 1016.5
20260902211303 81 30 0.0 0.0 0.00 0.00 0.00 84 1016.6
20260902210804 81 30 0.0 0.0 0.00 0.00 0.00 84 1016.5
20260902210304 81 29 0.0 0.0 0.00 0.00 0.00 84 1016.5
20260902205803 81 29 0.0 0.0 0.00 0.00 0.00 84 1016.6
20260902205306 81 28 0.0 0.0 0.00 0.00 0.00 84 1016.5
20260902204804 81 28 0.0 0.0 0.00 0.00 0.00 84 1016.5
20260902203804 81 28 0.0 0.0 0.00 0.00 0.00 84 1016.5
20260902203304 81 26 0.0 0.0 0.00 0.00 0.00 84 1016.3
20260902202306 82 26 0.0 0.0 0.00 0.00 0.00 84 1016.2
20260902201804 82 26 0.0 0.0 0.00 0.00 0.00 84 1016.1
20260902201304 82 26 0.0 0.0 0.00 0.00 0.00 84 1016.0
20260902200804 82 24 0.0 0.0 0.00 0.00 0.00 84 1016.0
20260902200304 82 22 0.0 0.0 0.00 0.00 0.00 84 1015.9
20260902195804 82 23 0.0 0.0 0.00 0.00 0.00 84 1015.9
20260902193304 82 50 0.0 0.0 0.00 0.00 0.00 83 1015.4
20260902192804 82 49 0.0 0.0 0.00 0.00 0.00 83 1015.3
20260902192306 82 12 0.0 0.0 0.00 0.00 0.00 83 1015.2
20260902191804 82 54 0.0 0.0 0.00 0.00 0.00 83 1015.1
20260902191303 82 134 0.0 0.0 0.00 0.00 0.00 83 1015.1
20260902190803 82 134 0.0 0.0 0.00 0.00 0.00 83 1015.1
20260902190304 82 134 0.0 0.0 0.00 0.00 0.00 82 1015.0
20260902185804 82 134 0.0 0.0 0.00 0.00 0.00 82 1014.9
20260902185306 82 134 0.0 0.0 0.00 0.00 0.00 82 1014.7
20260902184804 82 134 0.0 0.0 0.00 0.00 0.00 82 1014.7
20260902184304 82 135 0.0 0.0 0.00 0.00 0.00 82 1014.7
20260902183804 83 135 0.0 0.0 0.00 0.00 0.00 82 1014.6
20260902183303 83 135 0.0 2.0 0.00 0.00 0.00 81 1014.6
20260902182804 83 135 0.0 1.0 0.00 0.00 0.00 81 1014.6
20260902182306 83 135 0.0 3.0 0.00 0.00 0.00 81 1014.6
20260902181804 83 122 0.0 1.0 0.00 0.00 0.00 80 1014.6
20260902181304 83 121 0.0 2.0 0.00 0.00 0.00 80 1014.7
20260902180804 83 120 0.0 2.0 0.00 0.00 0.00 80 1014.8
20260902180304 84 115 0.0 3.0 0.00 0.00 0.00 80 1014.7
20260902175804 84 105 1.0 3.0 0.00 0.00 0.00 79 1014.8
20260902175307 84 64 1.0 5.0 0.00 0.00 0.00 79 1014.8
20260902174804 84 80 0.0 3.0 0.00 0.00 0.00 78 1014.7
20260902173804 84 120 0.0 2.0 0.00 0.00 0.00 78 1014.6
20260902173304 84 109 0.0 3.0 0.00 0.00 0.00 77 1014.6
20260902172803 84 134 0.0 5.0 0.00 0.00 0.00 76 1014.5
20260902172308 84 128 1.0 5.0 0.00 0.00 0.00 76 1014.4
20260902171804 85 127 2.0 5.0 0.00 0.00 0.00 76 1014.4
20260902170803 85 126 1.0 7.0 0.00 0.00 0.00 76 1014.4
20260902170305 85 128 2.0 5.0 0.00 0.00 0.00 75 1014.3
20260902165309 85 127 1.0 3.0 0.00 0.00 0.00 74 1014.3
20260902164805 86 114 1.0 7.0 0.00 0.00 0.00 73 1014.4
20260902164306 86 140 1.0 3.0 0.00 0.00 0.00 74 1014.4
20260902163805 86 135 1.0 6.0 0.00 0.00 0.00 73 1014.4
20260902163305 86 137 2.0 7.0 0.00 0.00 0.00 73 1014.3
20260902162805 86 78 1.0 10.0 0.00 0.00 0.00 73 1014.4
20260902162307 87 119 2.0 6.0 0.00 0.00 0.00 72 1014.4
20260902161805 86 118 1.0 6.0 0.00 0.00 0.00 71 1014.4
20260902161305 87 136 2.0 7.0 0.00 0.00 0.00 71 1014.3
20260902160805 87 116 2.0 5.0 0.00 0.00 0.00 70 1014.3
20260902160305 88 96 1.0 5.0 0.00 0.00 0.00 69 1014.3
20260902155307 88 128 1.0 5.0 0.00 0.00 0.00 68 1014.4
20260902154805 88 134 2.0 5.0 0.00 0.00 0.00 67 1014.3
20260902153804 88 122 2.0 5.0 0.00 0.00 0.00 68 1014.5
20260902153305 88 105 1.0 6.0 0.00 0.00 0.00 68 1014.5
20260902152307 88 86 2.0 5.0 0.00 0.00 0.00 69 1014.5
20260902151805 88 138 1.0 6.0 0.00 0.00 0.00 70 1014.6
20260902151305 88 117 2.0 5.0 0.00 0.00 0.00 69 1014.5
20260902150305 88 118 1.0 7.0 0.00 0.00 0.00 70 1014.6
20260902145806 88 125 2.0 7.0 0.00 0.00 0.00 70 1014.6
20260902145306 88 124 1.0 7.0 0.00 0.00 0.00 70 1014.5
20260902144805 88 137 2.0 7.0 0.00 0.00 0.00 70 1014.6
20260902144305 88 110 1.0 5.0 0.00 0.00 0.00 69 1014.7
20260902143305 88 138 2.0 6.0 0.00 0.00 0.00 69 1014.7
20260902142805 88 132 2.0 6.0 0.00 0.00 0.00 68 1014.8
20260902142306 89 115 1.0 5.0 0.00 0.00 0.00 69 1014.8
20260902141806 89 118 1.0 3.0 0.00 0.00 0.00 68 1014.9
20260902141306 89 99 2.0 5.0 0.00 0.00 0.00 68 1014.9
20260902140305 89 120 2.0 8.0 0.00 0.00 0.00 66 1015.0
20260902135805 90 138 1.0 6.0 0.00 0.00 0.00 66 1015.1
20260902134804 89 124 2.0 7.0 0.00 0.00 0.00 67 1015.1
20260902134305 89 128 2.0 8.0 0.00 0.00 0.00 67 1015.1
20260902133805 89 124 1.0 6.0 0.00 0.00 0.00 67 1015.1
20260902132805 88 124 2.0 7.0 0.00 0.00 0.00 66 1015.2
20260902131805 89 123 2.0 6.0 0.00 0.00 0.00 66 1015.2
20260902131305 89 132 1.0 8.0 0.00 0.00 0.00 67 1015.2
20260902130805 89 128 3.0 6.0 0.00 0.00 0.00 66 1015.3
20260902125805 89 131 1.0 8.0 0.00 0.00 0.00 66 1015.4
20260902125306 89 129 1.0 6.0 0.00 0.00 0.00 67 1015.4
20260902124805 88 132 1.0 8.0 0.00 0.00 0.00 66 1015.5
20260902124304 89 132 0.0 3.0 0.00 0.00 0.00 66 1015.5
20260902123305 88 134 3.0 7.0 0.00 0.00 0.00 67 1015.7
20260902122805 88 135 1.0 3.0 0.00 0.00 0.00 67 1015.7
20260902121804 89 137 1.0 5.0 0.00 0.00 0.00 65 1015.8
20260902121305 89 135 1.0 3.0 0.00 0.00 0.00 66 1015.7
20260902120805 88 155 1.0 5.0 0.00 0.00 0.00 67 1015.7
20260902120305 88 136 1.0 5.0 0.00 0.00 0.00 66 1015.8
20260902115804 88 131 1.0 6.0 0.00 0.00 0.00 68 1015.8
20260902114804 88 155 0.0 3.0 0.00 0.00 0.00 68 1015.8
20260902114305 88 128 2.0 6.0 0.00 0.00 0.00 68 1016.0
20260902113805 88 147 0.0 7.0 0.00 0.00 0.00 69 1016.0
20260902113305 88 134 1.0 6.0 0.00 0.00 0.00 68 1016.0
20260902112805 87 127 1.0 6.0 0.00 0.00 0.00 70 1016.0
20260902112306 87 134 1.0 6.0 0.00 0.00 0.00 70 1016.0
20260902111304 87 144 1.0 3.0 0.00 0.00 0.00 69 1016.0
20260902110805 86 135 0.0 3.0 0.00 0.00 0.00 71 1016.0
20260902110304 86 126 1.0 5.0 0.00 0.00 0.00 70 1016.0
20260902105804 86 128 0.0 3.0 0.00 0.00 0.00 71 1016.0
20260902105306 86 137 1.0 5.0 0.00 0.00 0.00 71 1016.0
20260902104805 86 141 1.0 6.0 0.00 0.00 0.00 72 1016.0
20260902104305 86 329 0.0 3.0 0.00 0.00 0.00 72 1016.1
20260902103304 84 131 0.0 3.0 0.00 0.00 0.00 74 1016.2
20260902102805 85 149 1.0 6.0 0.00 0.00 0.00 74 1016.2
20260902102307 85 146 1.0 3.0 0.00 0.00 0.00 74 1016.2
20260902101805 85 146 0.0 2.0 0.00 0.00 0.00 73 1016.2
20260902100306 86 140 0.0 3.0 0.00 0.00 0.00 71 1016.1
20260902095804 86 116 1.0 3.0 0.00 0.00 0.00 71 1016.1
20260902095307 86 136 0.0 2.0 0.00 0.00 0.00 72 1016.1
20260902094305 85 134 1.0 2.0 0.00 0.00 0.00 72 1016.1
20260902093304 85 140 0.0 2.0 0.00 0.00 0.00 74 1016.0
20260902092305 84 142 0.0 5.0 0.00 0.00 0.00 76 1016.1
20260902091804 83 136 0.0 2.0 0.00 0.00 0.00 76 1016.1
20260902091304 83 142 0.0 2.0 0.00 0.00 0.00 76 1016.1
20260902090805 83 145 0.0 0.0 0.00 0.00 0.00 76 1016.0
20260902090304 83 145 0.0 0.0 0.00 0.00 0.00 75 1016.0
20260902085804 83 145 1.0 3.0 0.00 0.00 0.00 75 1016.0
20260902085306 83 143 0.0 1.0 0.00 0.00 0.00 75 1016.0
20260902084805 83 149 1.0 2.0 0.00 0.00 0.00 76 1016.0
20260902084304 83 159 0.0 3.0 0.00 0.00 0.00 76 1015.9
20260902083804 82 209 0.0 0.0 0.00 0.00 0.00 76 1015.8
20260902083304 82 284 0.0 0.0 0.00 0.00 0.00 76 1015.6
20260902082805 82 284 0.0 0.0 0.00 0.00 0.00 77 1015.6
20260902081804 81 284 0.0 0.0 0.00 0.00 0.00 79 1015.5
20260902081304 80 284 0.0 0.0 0.00 0.00 0.00 79 1015.4
20260902080805 80 284 0.0 0.0 0.00 0.00 0.00 80 1015.3
20260902080304 80 284 0.0 0.0 0.00 0.00 0.00 80 1015.3
20260902075804 80 284 0.0 0.0 0.00 0.00 0.00 79 1015.3
20260902075306 80 284 0.0 0.0 0.00 0.00 0.00 79 1015.3
20260902074805 80 284 0.0 0.0 0.00 0.00 0.00 79 1015.3
20260902074305 80 284 0.0 0.0 0.00 0.00 0.00 79 1015.3
20260902073804 79 284 0.0 2.0 0.00 0.00 0.00 80 1015.3
20260902072805 78 286 0.0 1.0 0.00 0.00 0.00 81 1015.3
20260902072309 78 286 0.0 1.0 0.00 0.00 0.00 82 1015.2
20260902071805 77 286 0.0 1.0 0.00 0.00 0.00 83 1015.1
20260902071304 77 287 0.0 0.0 0.00 0.00 0.00 83 1015.1
20260902070804 76 286 0.0 1.0 0.00 0.00 0.00 84 1015.0
20260902070304 76 290 0.0 0.0 0.00 0.00 0.00 84 1014.9
20260902065804 76 290 0.0 0.0 0.00 0.00 0.00 85 1014.9
20260902065306 75 291 0.0 1.0 0.00 0.00 0.00 85 1014.8
20260902064804 75 292 0.0 0.0 0.00 0.00 0.00 85 1014.8
20260902064304 75 292 0.0 0.0 0.00 0.00 0.00 86 1014.8
20260902063804 75 292 0.0 0.0 0.00 0.00 0.00 86 1014.7
20260902062804 74 291 0.0 0.0 0.00 0.00 0.00 87 1014.5
20260902062306 74 291 0.0 0.0 0.00 0.00 0.00 87 1014.6
20260902061804 74 291 0.0 0.0 0.00 0.00 0.00 87 1014.5
20260902061304 74 291 0.0 0.0 0.00 0.00 0.00 87 1014.4
20260902055307 74 291 0.0 0.0 0.00 0.00 0.00 87 1014.4
20260902054804 74 291 0.0 0.0 0.00 0.00 0.00 87 1014.3
20260902054304 74 291 0.0 0.0 0.00 0.00 0.00 87 1014.4
20260902053304 73 291 0.0 0.0 0.00 0.00 0.00 87 1014.4
20260902052804 73 291 0.0 0.0 0.00 0.00 0.00 87 1014.3
20260902052306 73 291 0.0 0.0 0.00 0.00 0.00 88 1014.3
20260902051305 73 292 0.0 0.0 0.00 0.00 0.00 88 1014.2
20260902045804 73 100 0.0 0.0 0.00 0.00 0.00 89 1014.0
20260902045306 73 100 0.0 0.0 0.00 0.00 0.00 89 1014.0
20260902044805 73 100 0.0 0.0 0.00 0.00 0.00 89 1013.9
20260902043804 74 100 0.0 0.0 0.00 0.00 0.00 90 1013.9
20260902043305 74 100 0.0 0.0 0.00 0.00 0.00 90 1013.9
20260902042804 74 100 0.0 0.0 0.00 0.00 0.00 90 1013.9
20260902042308 74 100 0.0 0.0 0.00 0.00 0.00 90 1013.8
20260902041804 74 100 0.0 0.0 0.00 0.00 0.00 90 1013.9
20260902041304 74 100 0.0 0.0 0.00 0.00 0.00 90 1013.8
20260902040805 74 100 0.0 0.0 0.00 0.00 0.00 90 1013.9
20260902040305 74 100 0.0 0.0 0.00 0.00 0.00 90 1013.9
20260902035804 75 100 0.0 0.0 0.00 0.00 0.00 90 1013.9
20260902035305 75 100 0.0 0.0 0.00 0.00 0.00 90 1013.9
20260902034804 75 100 0.0 0.0 0.00 0.00 0.00 90 1013.9
20260902034304 75 100 0.0 0.0 0.00 0.00 0.00 90 1013.8
20260902033304 75 100 0.0 0.0 0.00 0.00 0.00 90 1013.9
20260902032805 75 100 0.0 0.0 0.00 0.00 0.00 90 1014.0
20260902032306 75 100 0.0 0.0 0.00 0.00 0.00 90 1014.0
20260902031804 75 100 0.0 0.0 0.00 0.00 0.00 90 1014.0
20260902031305 75 100 0.0 0.0 0.00 0.00 0.00 90 1014.1
20260902030804 75 100 0.0 0.0 0.00 0.00 0.00 90 1014.1
20260902030304 75 100 0.0 0.0 0.00 0.00 0.00 90 1014.1
20260902025804 75 100 0.0 0.0 0.00 0.00 0.00 90 1014.2
20260902025306 76 100 0.0 0.0 0.00 0.00 0.00 90 1014.1
20260902024804 76 100 0.0 0.0 0.00 0.00 0.00 90 1014.1
20260902024304 76 100 0.0 0.0 0.00 0.00 0.00 90 1014.1
20260902023804 76 100 0.0 0.0 0.00 0.00 0.00 90 1014.2
20260902023304 76 100 0.0 0.0 0.00 0.00 0.00 90 1014.2
20260902022306 76 100 0.0 0.0 0.00 0.00 0.00 90 1014.1
20260902021304 76 100 0.0 0.0 0.00 0.00 0.00 90 1014.2
20260902020804 76 100 0.0 0.0 0.00 0.00 0.00 90 1014.1
20260902020304 76 100 0.0 0.0 0.00 0.00 0.00 90 1014.0
20260902015804 76 100 0.0 0.0 0.00 0.00 0.00 90 1014.1
20260902015306 76 100 0.0 0.0 0.00 0.00 0.00 90 1014.2
20260902014804 76 100 0.0 0.0 0.00 0.00 0.00 90 1014.3
20260902014304 76 100 0.0 0.0 0.00 0.00 0.00 90 1014.4
20260902013804 76 100 0.0 0.0 0.00 0.00 0.00 90 1014.3
20260902013304 76 100 0.0 0.0 0.00 0.00 0.00 89 1014.3
20260902012804 76 100 0.0 0.0 0.00 0.00 0.00 89 1014.4
20260902012309 76 99 0.0 0.0 0.00 0.00 0.00 89 1014.4
20260902011305 76 100 0.0 0.0 0.00 0.00 0.00 89 1014.5
20260902010804 76 100 0.0 0.0 0.00 0.00 0.00 89 1014.5
20260902010304 76 99 0.0 0.0 0.00 0.00 0.00 89 1014.5
20260902004804 76 144 0.0 0.0 0.00 0.00 0.00 89 1014.4
20260902004304 76 144 0.0 0.0 0.00 0.00 0.00 89 1014.5
20260902003805 76 144 0.0 0.0 0.00 0.00 0.00 89 1014.6
20260902003304 76 144 0.0 0.0 0.00 0.00 0.00 89 1014.6
20260902002804 76 144 0.0 0.0 0.00 0.00 0.00 89 1014.5
20260902002306 76 144 0.0 1.0 0.00 0.00 0.00 90 1014.5
20260902001804 76 144 0.0 1.0 0.00 0.00 0.00 90 1014.6
20260902001304 76 143 0.0 0.0 0.00 0.00 0.00 90 1014.6
20260902000804 76 143 0.0 0.0 0.00 0.00 0.00 89 1014.7
20260901235804 76 143 0.0 0.0 0.00 0.00 0.00 89 1014.6
20260901235307 76 143 0.0 0.0 0.00 0.00 0.00 89 1014.6
20260901234804 76 143 0.0 0.0 0.00 0.00 0.00 89 1014.5
20260901234304 76 143 0.0 0.0 0.00 0.00 0.00 89 1014.5
20260901233804 76 143 0.0 0.0 0.00 0.00 0.00 89 1014.6
20260901233304 76 143 0.0 0.0 0.00 0.00 0.00 89 1014.6
20260901232804 76 143 0.0 0.0 0.00 0.00 0.00 89 1014.5
20260901232306 76 143 0.0 0.0 0.00 0.00 0.00 89 1014.5
20260901231804 77 143 0.0 0.0 0.00 0.00 0.00 88 1014.5
20260901231304 77 142 0.0 0.0 0.00 0.00 0.00 88 1014.5
20260901230804 77 142 0.0 0.0 0.00 0.00 0.00 88 1014.4
20260901230304 77 142 0.0 0.0 0.00 0.00 0.00 88 1014.4
20260901225804 78 142 0.0 0.0 0.00 0.00 0.00 88 1014.4
20260901225306 78 142 0.0 0.0 0.00 0.00 0.00 88 1014.5
20260901224804 78 142 0.0 0.0 0.00 0.00 0.00 88 1014.5
20260901224304 78 142 0.0 0.0 0.00 0.00 0.00 88 1014.4
20260901223804 78 142 0.0 0.0 0.00 0.00 0.00 88 1014.5
20260901223304 78 142 0.0 0.0 0.00 0.00 0.00 88 1014.4
20260901222306 78 142 0.0 0.0 0.00 0.00 0.00 87 1014.4
20260901221304 78 142 0.0 0.0 0.00 0.00 0.00 87 1014.4
20260901220816 78 142 0.0 0.0 0.00 0.00 0.00 87 1014.3
20260901220305 78 142 0.0 0.0 0.00 0.00 0.00 86 1014.4
20260901215804 79 142 0.0 0.0 0.00 0.00 0.00 86 1014.3
20260901215306 79 142 0.0 0.0 0.00 0.00 0.00 86 1014.3